Wind_Speed
11 11 12 12 12 12 12 11 12 13 14 14 13 13 15 16 17 17 17 15 16 17 16 17 17 19 18 16 13 14 16 19 30 31 31 31 31 29 24 23 28 30 26 25 23
9 10 11 12 12 12 13 13 13 13 15 15 15 14 14 15 16 16 16 16 16 17 17 17 17 19 18 16 15 14 13 18 29 34 35 33 32 30 27 28 29 27 27 25 23
8 8 8 10 11 12 12 13 14 15 13 15 17 19 19 19 19 19 20 20 21 21 21 18 18 20 19 19 18 15 17 22 28 30 31 31 28 27 26 26 28 26 26 25 21
9 9 9 9 9 10 11 12 13 15 15 14 14 18 21 22 22 23 23 22 21 21 21 18 17 18 18 19 18 19 18 21 32 30 29 27 24 26 25 26 26 24 18 20 17
11 11 11 11 11 10 10 11 12 13 14 16 16 15 17 20 22 21 21 21 20 20 20 20 19 15 16 13 14 19 22 24 27 27 28 29 27 27 26 26 21 16 13 14 11
13 14 14 14 13 11 11 10 11 12 13 14 16 17 17 16 18 20 21 21 20 19 21 20 18 17 15 12 15 17 21 24 26 28 30 31 31 28 28 23 15 9 10 13 13
14 16 15 16 15 14 13 11 10 10 11 13 16 16 18 17 16 17 18 20 21 20 19 20 21 20 18 17 18 19 19 21 23 26 29 31 31 31 28 21 13 8 10 15 15
16 16 16 15 15 16 16 14 12 11 11 12 13 16 17 18 17 18 17 16 19 23 22 20 22 23 24 22 20 17 18 20 22 26 30 29 31 29 24 19 15 11 14 18 20
16 17 16 16 17 16 17 17 15 13 12 11 12 13 17 17 16 17 17 17 17 16 19 21 21 20 21 23 23 21 22 24 24 24 26 30 31 26 19 20 14 12 15 20 19
17 17 17 17 18 18 17 16 16 16 15 13 12 13 13 16 17 16 18 19 18 17 16 16 16 17 18 21 21 21 22 25 26 24 23 19 16 16 18 19 15 14 16 18 19
18 19 18 18 19 17 17 17 17 16 17 15 13 13 13 11 15 17 18 19 19 19 18 17 17 19 21 21 20 20 24 25 24 22 17 17 19 19 17 17 17 17 19 22 23
21 20 20 19 21 21 18 14 10 14 17 16 16 15 14 15 14 15 17 18 21 20 19 21 21 20 20 20 20 22 24 25 22 19 21 19 18 15 19 20 17 21 23 25 27
26 23 22 20 24 23 20 17 15 15 16 16 18 17 15 15 14 15 16 15 19 20 21 21 21 20 20 21 20 23 24 24 22 23 24 18 21 22 21 23 22 25 27 29 31
29 27 25 25 25 25 22 20 18 19 18 19 20 19 17 18 15 15 16 16 20 21 19 22 21 20 19 20 18 21 21 22 26 27 24 21 22 24 24 26 28 32 31 32 34
31 29 29 28 28 25 24 23 21 22 21 20 19 19 20 19 19 18 18 17 21 19 20 22 20 20 20 20 21 22 22 24 23 28 26 26 27 27 29 29 29 32 35 39 43
34 31 31 30 30 26 26 25 24 23 24 21 20 20 20 21 20 20 20 21 22 21 21 22 21 20 21 21 23 24 24 23 21 23 27 31 34 34 34 35 37 39 42 44 42
40 34 31 34 31 29 29 26 27 24 23 25 24 22 20 22 21 20 19 21 23 21 22 22 21 20 21 23 23 21 19 19 21 24 25 28 32 34 35 36 38 38 38 37 35
45 42 37 38 33 30 32 30 28 23 27 28 28 26 21 20 20 22 22 21 21 21 23 22 21 20 21 21 19 17 15 17 21 19 21 25 31 31 33 33 32 33 34 33 35
38 38 40 40 37 33 33 33 23 27 31 31 30 27 25 22 24 24 22 22 23 22 23 21 19 22 22 20 18 14 16 19 21 21 22 22 23 24 26 27 29 32 33 32 30
38 34 34 35 35 34 35 29 23 30 33 32 30 28 24 23 26 26 25 22 22 24 20 18 19 22 22 21 21 19 20 19 19 23 24 24 23 24 23 24 26 28 28 27 29
37 35 32 32 32 34 34 26 26 33 37 35 33 31 28 28 25 27 25 21 20 23 18 16 18 20 20 19 19 20 17 17 22 24 27 27 23 22 24 24 25 24 25 27 30
34 36 33 31 31 33 33 27 29 36 41 37 35 33 34 32 29 26 24 24 24 23 18 15 15 14 16 19 19 17 20 22 28 32 30 25 21 23 24 23 25 27 30 31 33
28 37 35 32 31 31 32 30 33 39 44 40 39 37 36 35 32 29 26 22 24 23 17 16 18 19 18 19 20 24 26 30 35 36 28 26 23 24 24 24 26 28 29 31 34
27 33 38 34 30 30 30 30 34 42 47 45 42 42 40 36 36 32 28 25 23 20 21 22 26 24 23 23 24 25 29 33 37 31 24 20 22 23 25 25 25 27 30 32 33
27 31 35 37 33 30 28 31 36 40 49 49 47 45 40 38 38 35 31 28 26 26 26 26 29 31 30 29 29 31 31 31 24 25 24 21 23 23 24 24 26 28 29 30 30
27 28 33 38 35 33 30 31 35 37 46 50 48 49 48 42 40 34 34 33 33 30 32 32 33 34 35 36 35 37 34 28 26 27 24 24 24 24 24 25 27 28 28 28 29
27 27 31 35 37 35 34 33 33 36 42 47 51 48 46 46 43 39 40 36 38 36 35 39 42 41 39 37 37 34 31 30 27 25 25 26 24 23 24 25 26 26 26 27 30
Wind_Direction
283 281 279 276 272 264 260 260 254 249 242 240 236 233 229 225 223 223 225 229 232 237 239 238 240 243 247 245 240 234 234 223 212 233 241 250 261 269 278 289 300 306 318 333 335
287 281 279 277 275 274 266 260 255 252 246 239 235 231 226 222 221 222 226 236 241 246 247 242 243 242 243 244 239 231 227 217 217 230 243 252 257 268 279 290 301 311 327 325 335
301 299 294 282 272 269 266 260 256 251 250 245 238 235 233 232 233 236 240 243 248 250 247 242 240 243 242 240 239 230 213 218 226 237 249 258 269 280 285 295 303 326 335 324 326
300 303 301 297 282 270 266 260 257 255 250 246 245 240 238 239 242 244 247 247 246 244 240 236 232 237 238 237 237 234 226 209 222 241 254 268 280 277 284 295 310 329 326 316 316
293 297 295 291 287 279 266 262 257 254 251 247 244 243 242 240 240 240 241 240 238 238 233 230 228 238 240 241 239 236 234 229 236 250 257 265 272 277 284 293 324 330 324 310 311
290 294 289 281 277 277 273 265 258 254 250 245 242 240 242 240 237 237 238 236 235 234 230 230 232 238 231 231 236 238 236 238 242 244 248 255 266 276 280 297 306 304 311 309 316
281 290 287 278 272 267 267 268 264 257 250 244 242 238 241 241 239 238 235 232 232 233 232 227 230 233 232 232 235 230 236 245 247 252 252 259 265 272 283 295 295 278 297 307 311
280 285 280 277 274 266 262 259 259 259 255 248 245 240 241 244 240 244 240 234 235 237 235 232 234 235 236 236 231 230 235 235 239 245 249 257 256 267 284 282 289 278 298 312 321
277 281 277 273 270 267 263 260 258 256 256 253 245 240 240 246 241 244 242 237 234 234 234 234 237 241 242 232 227 221 227 238 239 243 247 249 255 270 261 264 293 304 293 306 314
277 277 275 272 269 263 261 261 261 258 257 256 251 240 241 244 244 237 242 241 237 234 234 228 229 232 232 228 225 227 224 231 240 239 244 240 245 246 252 269 294 304 307 302 306
274 277 274 270 269 267 260 261 263 262 258 255 252 256 234 233 240 242 238 243 239 237 234 229 229 231 228 231 231 233 232 229 243 252 253 243 248 254 263 278 297 302 300 300 302
268 272 275 270 267 265 266 269 282 262 258 252 248 245 241 235 231 236 231 238 239 234 231 229 226 230 234 239 236 234 237 234 238 244 257 248 253 255 261 276 293 297 297 302 305
264 265 271 272 267 266 268 271 268 268 256 248 247 242 238 241 237 234 233 237 241 233 230 232 235 234 233 238 240 241 242 245 247 252 247 250 243 256 264 273 287 294 298 301 301
261 261 265 270 271 266 266 266 271 263 261 255 247 241 237 237 235 232 232 234 234 229 223 229 235 233 234 241 246 243 244 249 261 261 256 260 261 264 269 278 286 292 294 295 293
259 258 261 265 269 270 265 263 265 258 257 253 247 241 236 235 234 230 228 234 238 230 220 227 233 233 235 238 244 248 249 256 257 251 261 265 267 272 269 276 279 282 283 288 292
263 258 262 262 264 271 269 260 259 253 248 248 246 238 234 233 233 234 230 228 230 228 220 226 231 234 243 244 248 252 260 261 257 253 257 261 266 268 270 275 278 283 287 289 297
263 261 259 262 264 268 268 261 255 251 240 240 240 237 232 231 229 228 232 236 235 231 227 228 233 240 248 247 250 249 252 262 267 271 271 268 270 277 280 282 284 286 289 293 296
258 259 258 260 263 263 264 259 254 245 235 236 240 241 228 229 230 227 227 232 237 235 230 229 235 242 241 247 250 257 280 278 278 271 267 268 272 279 281 282 283 284 288 293 297
261 258 257 259 259 260 256 255 251 242 236 232 236 240 237 229 226 229 226 229 234 228 232 232 236 239 250 255 261 266 272 268 273 272 272 269 276 282 284 285 288 290 294 296 297
258 260 254 253 252 250 250 247 234 238 236 228 227 232 237 235 231 228 224 224 227 225 224 231 240 246 254 260 263 264 267 273 280 285 287 287 287 285 285 283 287 295 297 298 296
252 253 252 249 246 244 244 238 224 230 231 225 222 226 225 229 224 225 225 221 223 222 221 229 242 251 256 256 254 256 272 283 293 300 301 296 294 296 292 292 295 295 302 296 292
247 247 246 245 243 242 240 227 219 225 229 226 226 220 228 224 224 219 221 216 216 215 215 225 244 254 260 257 263 288 296 297 304 305 300 299 299 300 297 302 302 303 297 295 297
253 243 244 241 242 239 236 224 219 220 226 220 224 227 224 230 228 233 230 229 223 225 232 249 257 272 278 275 281 285 289 294 296 297 299 295 302 299 303 302 301 298 296 297 300
256 250 243 241 239 237 234 223 215 216 223 223 217 229 226 227 234 234 238 233 236 238 240 246 254 263 270 273 280 287 287 289 295 293 295 296 294 297 297 302 295 294 296 301 306
258 252 242 241 238 238 230 223 218 215 221 229 221 222 216 229 238 242 249 243 243 244 250 253 259 267 273 279 284 287 293 292 294 291 294 296 297 296 299 298 296 298 304 309 314
255 251 246 239 236 234 229 224 220 218 221 227 231 228 229 229 233 237 252 250 245 247 253 259 259 265 272 280 283 286 292 284 285 288 294 293 294 293 294 292 297 303 308 315 318
255 250 246 242 237 234 230 225 221 217 223 226 230 234 234 235 237 240 239 236 243 251 250 254 259 264 272 279 283 286 290 285 288 290 290 290 289 290 289 295 300 304 312 317 317
Height
5858 5857 5857 5857 5856 5856 5856 5857 5857 5858 5860 5861 5863 5864 5865 5867 5869 5871 5872 5875 5876 5877 5878 5880 5881 5882 5884 5886 5888 5890 5892 5892 5891 5891 5890 5892 5892 5892 5894 5894 5895 5895 5895 5893 5891
5856 5855 5854 5854 5854 5854 5854 5854 5855 5856 5857 5858 5860 5862 5863 5865 5867 5869 5871 5872 5874 5875 5876 5878 5879 5879 5882 5884 5885 5887 5888 5889 5888 5887 5887 5889 5891 5892 5894 5893 5893 5892 5893 5889 5887
5854 5853 5852 5852 5851 5851 5851 5852 5852 5853 5854 5855 5857 5858 5860 5862 5864 5866 5867 5869 5870 5872 5873 5875 5876 5877 5879 5880 5882 5884 5883 5884 5884 5884 5886 5888 5890 5891 5891 5891 5890 5890 5888 5885 5884
5852 5851 5851 5850 5850 5850 5849 5849 5850 5850 5851 5852 5853 5854 5856 5858 5861 5862 5863 5864 5866 5867 5870 5872 5874 5875 5876 5877 5880 5881 5881 5882 5879 5881 5883 5885 5888 5889 5890 5890 5889 5888 5885 5881 5879
5850 5849 5849 5848 5848 5848 5848 5847 5847 5848 5848 5849 5850 5851 5852 5854 5856 5858 5859 5860 5862 5864 5866 5869 5871 5873 5874 5875 5877 5877 5878 5878 5878 5880 5882 5883 5885 5887 5887 5888 5887 5885 5882 5879 5876
5848 5847 5846 5846 5846 5846 5846 5846 5845 5845 5846 5846 5847 5848 5849 5851 5852 5853 5855 5857 5859 5860 5863 5866 5869 5870 5871 5873 5873 5874 5875 5876 5876 5878 5879 5880 5882 5884 5885 5886 5885 5884 5881 5877 5876
5846 5845 5844 5843 5843 5844 5844 5844 5843 5843 5843 5844 5844 5845 5846 5848 5849 5849 5851 5853 5855 5857 5860 5862 5864 5865 5868 5870 5870 5871 5873 5874 5875 5875 5876 5876 5878 5879 5881 5883 5881 5880 5878 5875 5872
5842 5841 5841 5840 5840 5840 5841 5841 5841 5841 5841 5841 5841 5842 5843 5844 5846 5847 5848 5849 5851 5853 5856 5858 5859 5861 5864 5866 5867 5868 5868 5870 5871 5871 5873 5875 5875 5877 5879 5879 5878 5877 5875 5873 5870
5838 5838 5837 5837 5836 5837 5837 5838 5839 5839 5839 5838 5839 5839 5840 5841 5843 5845 5846 5847 5847 5849 5851 5854 5856 5858 5860 5862 5863 5864 5864 5865 5867 5868 5869 5871 5872 5874 5875 5875 5874 5872 5871 5869 5867
5834 5834 5834 5833 5832 5833 5834 5834 5835 5836 5836 5837 5837 5838 5838 5838 5840 5841 5843 5844 5845 5847 5849 5852 5853 5854 5856 5858 5860 5861 5862 5860 5863 5866 5866 5869 5870 5871 5871 5871 5869 5868 5867 5865 5863
5830 5830 5829 5829 5828 5829 5829 5831 5833 5834 5833 5834 5834 5834 5835 5836 5836 5838 5839 5841 5842 5844 5846 5848 5851 5851 5852 5854 5856 5858 5858 5859 5860 5862 5865 5865 5866 5867 5867 5866 5865 5865 5864 5862 5860
5826 5825 5825 5825 5824 5824 5826 5828 5828 5829 5829 5829 5830 5831 5832 5832 5833 5834 5836 5838 5839 5841 5843 5845 5845 5848 5850 5852 5854 5855 5855 5857 5859 5860 5861 5862 5863 5863 5863 5863 5862 5862 5860 5857 5855
5821 5821 5820 5820 5819 5820 5822 5824 5824 5823 5823 5825 5826 5827 5828 5830 5830 5832 5833 5834 5836 5838 5839 5840 5843 5845 5847 5848 5851 5852 5853 5854 5856 5856 5857 5858 5859 5859 5860 5859 5859 5858 5855 5853 5851
5813 5815 5815 5814 5815 5815 5817 5818 5818 5818 5819 5821 5821 5824 5825 5825 5827 5828 5830 5832 5833 5834 5837 5838 5839 5842 5844 5846 5849 5850 5850 5851 5851 5852 5853 5853 5854 5855 5856 5855 5854 5852 5850 5847 5845
5806 5808 5808 5808 5808 5810 5812 5812 5813 5813 5814 5816 5817 5819 5820 5822 5823 5825 5826 5828 5830 5832 5835 5835 5837 5840 5841 5844 5845 5846 5847 5848 5847 5847 5847 5848 5848 5850 5850 5850 5849 5847 5845 5842 5839
5798 5801 5801 5801 5802 5805 5805 5806 5807 5808 5809 5810 5811 5813 5816 5817 5819 5821 5823 5825 5826 5829 5830 5832 5834 5837 5839 5840 5841 5842 5843 5843 5843 5842 5842 5843 5843 5843 5844 5844 5843 5841 5839 5836 5834
5788 5791 5795 5792 5795 5797 5797 5799 5801 5802 5804 5804 5805 5808 5811 5813 5814 5816 5819 5821 5824 5826 5827 5828 5830 5833 5835 5836 5838 5839 5839 5840 5840 5839 5839 5837 5836 5837 5836 5836 5836 5834 5831 5830 5828
5777 5781 5784 5783 5787 5789 5790 5792 5794 5798 5796 5797 5799 5802 5806 5809 5811 5812 5814 5817 5819 5822 5823 5825 5828 5829 5831 5833 5834 5836 5837 5836 5833 5834 5834 5833 5831 5833 5831 5830 5828 5826 5824 5823 5821
5766 5770 5772 5775 5777 5780 5782 5783 5790 5789 5789 5792 5794 5797 5801 5805 5806 5807 5811 5813 5815 5818 5821 5822 5824 5825 5827 5829 5831 5833 5832 5831 5830 5829 5828 5829 5829 5827 5824 5822 5821 5819 5817 5815 5812
5756 5759 5762 5763 5767 5769 5772 5777 5781 5780 5781 5786 5789 5793 5796 5800 5802 5803 5805 5810 5812 5815 5815 5819 5820 5821 5823 5825 5826 5827 5828 5827 5826 5824 5823 5823 5823 5821 5820 5817 5815 5813 5810 5807 5803
5746 5749 5752 5754 5757 5759 5763 5770 5773 5771 5773 5779 5784 5788 5790 5792 5797 5799 5801 5805 5808 5809 5811 5814 5817 5819 5819 5820 5821 5823 5823 5822 5820 5819 5817 5816 5817 5815 5813 5811 5809 5807 5804 5800 5796
5736 5739 5742 5746 5749 5751 5755 5761 5765 5764 5765 5771 5777 5782 5784 5786 5790 5794 5798 5801 5804 5805 5808 5811 5812 5814 5815 5815 5816 5816 5816 5815 5814 5814 5812 5812 5812 5809 5806 5805 5802 5800 5796 5792 5790
5727 5729 5733 5737 5740 5743 5747 5752 5756 5757 5758 5765 5769 5774 5778 5782 5785 5788 5792 5797 5800 5802 5804 5807 5808 5809 5810 5812 5812 5812 5811 5810 5808 5807 5806 5804 5805 5801 5800 5798 5796 5792 5789 5786 5782
5720 5720 5723 5728 5731 5735 5739 5745 5748 5751 5752 5756 5763 5765 5771 5776 5779 5783 5787 5791 5794 5797 5800 5802 5803 5805 5807 5807 5808 5808 5807 5804 5801 5800 5800 5800 5798 5797 5794 5792 5789 5786 5783 5780 5777
5711 5712 5714 5717 5723 5727 5732 5736 5740 5745 5747 5749 5756 5760 5765 5769 5773 5777 5782 5785 5789 5792 5794 5796 5798 5799 5800 5801 5802 5802 5802 5799 5797 5795 5794 5795 5792 5791 5789 5786 5783 5780 5777 5774 5770
5703 5704 5706 5709 5713 5718 5723 5728 5732 5738 5740 5743 5748 5754 5759 5764 5767 5772 5777 5780 5783 5786 5788 5790 5791 5792 5793 5795 5795 5795 5795 5793 5792 5790 5788 5787 5786 5785 5782 5780 5777 5774 5771 5768 5764
5695 5696 5697 5701 5704 5710 5714 5719 5723 5728 5732 5736 5740 5745 5751 5757 5763 5767 5768 5771 5775 5779 5781 5783 5784 5785 5787 5787 5786 5786 5787 5785 5784 5783 5782 5780 5780 5778 5775 5774 5772 5769 5766 5763 5759